Find Starlink 11226

NORAD ID: 60907 Int'l Des: 2024-154 Owner: SPXS Country: US Constellation: starlink operational
LEOCIRCULAR

当前视图

正在加载3D地球...

About Starlink 11226

Starlink 11226 (NORAD 60907) is a starlink constellation satellite (v2 mini d2c) launched Aug 31, 2024 by SPXS of US. It operates in LEO, CIRCULAR orbit with a mass of 960.00 kg.

关于 Starlink 11226

正在加载描述...

即将过境

Passes for default location (London). Set your location on the main map for personalized predictions.

高度历史

Loading altitude history...

两行轨道根数

1 60907U 24154E 26170.89117397 -.00002338 00000-0 -14427-4 0 9999
2 60907 53.1576 347.6398 0001359 151.1565 208.9528 15.69725336104560
Epoch: Jun 19, 2026 • Age: 14 hours

当前状态

高度 368.2 km
速度 7.69 km/s
星下点 -26.02°S, 110.16°W
发射日期 Aug 31, 2024
运行时间 1.8 years
类型 internet

技术详情

分类 Payload
质量 960.00 kg
干质量 910.00 kg
总质量 960.00 kg
长度 0.30 m
直径 4.10 m
跨度 29.00 m
形状 Box + pan
制造商 SPXS
平台类型 Starlink V2MD
阶段状态 In Orbit
所有者/国家 SPXS/US

Most Searched